Location: Lafig�re
(44.4503°N, 4.0357°E)
Time: 15:29:45
(UTC+00:00)

Vanguard 2 Rocket - Pass Details

Date: 03 February 2021
Orbit: 554 x 3325 km, 32.9° (Epoch: 06 March)

Event Time Altitude Azimuth Distance (km) Brightness Sun altitude
Rises 14:24:25 0° 261° (W) 7,252 12.2 20.6°
Reaches altitude 10° 14:29:46 10° 257° (WSW) 6,069 12.0 20.0°
Maximum altitude 14:46:43 51° 190° (S) 2,811 10.3 18.1°
Drops below altitude 10° 14:57:14 10° 118° (ESE) 3,893 10.0 16.8°
Sets 14:59:53 0° 113° (ESE) 4,571 10.3 16.4°
